{"data":{"norad_id":64214,"intl_designator":"2025-117M","name":"STARLINK-34283","alt_names":[],"object_type":"PAYLOAD","status":"ACTIVE","operator":null,"country":"US","launch_date":"2025-05-31","launch_site_code":"AFWTR","launch_vehicle":null,"mission":null,"orbit_class":"UNKNOWN","rcs_meters":null,"size_class":null,"mass_kg":null,"dimensions":null,"purposes":["comms"],"wikipedia_slug":null,"has_3d_model":false,"image_url":null,"decayed_at":null,"tle_current":{"epoch":"2026-09-20T06:36:45.655488Z","epoch_age_seconds":157425,"freshness":"FRESH","line1":"1 64214U 25117M   26263.27552842  .00014558  00000+0  44094-3 0  9993","line2":"2 64214  53.1582 211.0959 0000953  88.6263 271.4849 15.34415524 74381","mean_motion":15.34415524,"eccentricity":9.53e-5,"inclination_deg":53.1582,"raan_deg":211.0959,"arg_perigee_deg":88.6263,"mean_anomaly_deg":271.4849,"bstar":0.00044094,"rev_number":7438,"period_min":93.846808604108,"perigee_km":462.00517231885,"apogee_km":463.30902767431,"semimajor_km":6840.7940999966,"source":"CELESTRAK","updated_at":"2026-09-21T09:00:35.272268Z"}}}